Details From LFLY - Lyon Bron
To LFMN - Nice Cote D Azur
Flight Number -
Tags Generated
Created
Modified
Stats Distance 158 nm / 293 km
Max Altitude 0 ft / 0 m
Waypoints 2
Social Downloads 8
Likes 0
Share VATSIM

Download

Looking for another format? Having issues loading an existing format? Contact us
Advertisement - Login to hide

Notes

Generated

Route

LFLY LFMN

ID Type Via Altitude Latitude Longitude Leg Dist Tot Dist Heading (true) Name
O LFLY APT - 0 ft / 0 m 45.73501˚ 4.94093˚ - 0 nm - -
O LFMN APT - 0 ft / 0 m 43.64661˚ 7.20258˚ 158 nm 158 nm 142° / 143° -

Altitude Profile

Advertisement - Login to hide

LFLY

Details ICAO LFLY (LYN)
Name Lyon Bron
Region France
Timezone Europe/Paris (UTC+2.0)
Stats Elevation 659 ft / 201 m (AMSL)
Location 45.727171° 4.944274°
Runways 1
Magnetic Variation 1.503° E

METAR

LFLY 210730Z AUTO VRB03KT CAVOK 17/11 Q1014 BECMG SCT050TCU

Decode

TAF

TAF LFLY 210500Z 2106/2206 18005KT CAVOK BECMG 2109/2112 SCT050TCU PROB40 TEMPO 2115/2122 VRB15KT SHRA BKN050TCU PROB30 TEMPO 2116/2121 VRB15G25KT TSRA SCT045CB BKN050TCU BECMG 2122/2124 CAVOK

Decode

Departure Runways

ID Width Length Bearing (true) Bearing (mag) Surface Threshold Offset Overrun Length
16 148 ft / 45 m 5,972 ft / 1,820 m 163.44° 161.94° Asphalt 984 ft / 300 m 0 ft / 0 m
34 148 ft / 45 m 5,972 ft / 1,820 m 343.44° 341.94° Asphalt 984 ft / 300 m 0 ft / 0 m

LFMN

Details ICAO LFMN (NCE)
Name Nice/Cote d'Azur
Region France
Timezone Unknown (UTC+0.0)
Stats Elevation 12 ft / 4 m (AMSL)
Location 43.657981° 7.215362°
Runways 2
Magnetic Variation 2.065° E

METAR

LFMN 210730Z 33010KT 9999 FEW073 SCT093 23/09 Q1012 NOSIG

Decode

TAF

TAF LFMN 210200Z 2103/2209 34010KT 9999 FEW040 BECMG 2107/2109 18010KT PROB40 TEMPO 2109/2114 20010G20KT SHRA SCT040TCU BECMG 2118/2120 33006KT TEMPO 2120/2209 VRB15G30KT 4000 TSRA FEW010 BKN040CB

Decode

Destination Runways

ID Width Length Bearing (true) Bearing (mag) Surface Threshold Offset Overrun Length
04L 148 ft / 45 m 8,427 ft / 2,569 m 44.85° 42.79° Asphalt 0 ft / 0 m 131 ft / 40 m
04R 148 ft / 45 m 9,720 ft / 2,963 m 44.60° 42.54° Asphalt 0 ft / 0 m 427 ft / 130 m
22L 148 ft / 45 m 9,720 ft / 2,963 m 224.62° 222.56° Asphalt 0 ft / 0 m 525 ft / 160 m
22R 148 ft / 45 m 8,427 ft / 2,569 m 224.87° 222.81° Asphalt 0 ft / 0 m 492 ft / 150 m

Approach Navaids

Runway Type Ident Frequency Range Bearing (true) Bearing (mag) Slope Elevation
04L Localiser NI 109.95 MHz 27 nm / 50 km 44.90° 42.84° - 12 ft / 4 m (AMSL)
04L Glidescope NI 109.95 MHz 27 nm / 50 km 44.90° 42.84° 3.00° 12 ft / 4 m (AMSL)
04L DME NI 109.95 MHz 27 nm / 50 km - - - 12 ft / 4 m (AMSL)
04R Localiser NA 110.70 MHz 27 nm / 50 km 42.00° 39.94° - 12 ft / 4 m (AMSL)
04R Glidescope NA 110.70 MHz 27 nm / 50 km 42.00° 39.94° 3.00° 12 ft / 4 m (AMSL)
04R DME NA 110.70 MHz 27 nm / 50 km - - - 12 ft / 4 m (AMSL)

Popular Alternatives